Winner, SD

4:45 AM CDT on March 27, 2017 (GMT -0500)
Winner

Weather History for KICR - August, 2013

Change the Weather History Date:

Sunday, August 25, 2013

  Actual Average Record
Temperature  
Mean Temperature 88 °F 73 °F  
Max Temperature 100 °F 86 °F 100 °F (2013)
Min Temperature 76 °F 60 °F 51 °F (2010)
Degree Days  
Heating Degree Days 0 0  
Month to date heating degree days 0 0  
Since 1 June heating degree days 60 59  
Since 1 July heating degree days 7 5  
Cooling Degree Days 23 8  
Month to date cooling degree days 217 255  
Year to date cooling degree days 676 761  
Since 1 June cooling degree days 637 731  
Growing Degree Days 38 (Base 50)    
Moisture  
Dew Point 62 °F    
Average Humidity 41    
Maximum Humidity 60    
Minimum Humidity 22    
Precipitation  
Precipitation 0.00 in 0.06 in 0.00 in (2017)
Month to date precipitation 2.49 1.99  
Year to date precipitation 15.99 16.67  
Sea Level Pressure  
Sea Level Pressure 29.85 in    
Wind  
Wind Speed 13 mph (SSW)    
Max Wind Speed 23 mph    
Max Gust Speed 48 mph    
Visibility 10 miles    
Events      
T = Trace of Precipitation, MM = Missing Value Source: NWS Daily Summary

Daily Weather History Graph

Daily Weather History Graph

Search for Another Location

Airport or City:

Trip Planner

Search our weather history database for the weather conditions in past years. The results will help you decide how hot, cold, wet, or windy it might be!

Date:

Astronomy

Aug. 25, 2013 Rise Set
Actual Time 6:55 AM CDT 8:25 PM CDT
Civil Twilight 6:25 AM CDT 8:55 PM CDT
Nautical Twilight 5:49 AM CDT 9:31 PM CDT
Astronomical Twilight 5:11 AM CDT 10:10 PM CDT
Moon 10:47 PM CDT (8/25) 12:10 PM CDT (8/25)
Length of Visible Light 14h 29m
Length of Day
13h 30m
Waning Gibbous, 75% of the Moon is Illuminated
Aug 25
Waning Gibbous
Aug 28
Last Quarter
Sep 5
New
Sep 12
First Quarter
Sep 19
Full

Hourly Weather History & Observations

Time (CDT) Temp. Heat Index Dew Point Humidity Pressure Visibility Wind Dir Wind Speed Gust Speed Precip Events Conditions
12:53 AM 82.9 °F 84.0 °F 63.0 °F 51% 29.81 in 10.0 mi South 20.7 mph - N/A   Clear
1:53 AM 84.0 °F 84.0 °F 60.1 °F 44% 29.81 in 10.0 mi South 19.6 mph 27.6 mph N/A   Clear
2:53 AM 84.0 °F 84.0 °F 60.1 °F 44% 29.81 in 10.0 mi SSW 16.1 mph 25.3 mph N/A   Clear
3:53 AM 82.0 °F 82.7 °F 61.0 °F 49% 29.81 in 10.0 mi South 15.0 mph - N/A   Clear
4:53 AM 80.1 °F 81.2 °F 62.1 °F 54% 29.82 in 10.0 mi South 17.3 mph 23.0 mph N/A   Clear
5:53 AM 78.1 °F - 62.1 °F 58% 29.83 in 10.0 mi SSW 15.0 mph - N/A   Clear
6:53 AM 77.0 °F - 62.1 °F 60% 29.85 in 10.0 mi SSW 17.3 mph 24.2 mph N/A   Clear
7:53 AM 77.0 °F - 62.1 °F 60% 29.86 in 10.0 mi SSW 21.9 mph - N/A   Clear
8:53 AM 79.0 °F - 63.0 °F 58% 29.87 in 10.0 mi SSW 18.4 mph 27.6 mph N/A   Clear
9:53 AM 82.9 °F - 39.0 °F 21% 29.88 in 10.0 mi SSW 16.1 mph - N/A   Clear
10:53 AM 86.0 °F 86.8 °F 63.0 °F 46% 29.89 in 10.0 mi SW 12.7 mph - N/A   Clear
11:53 AM 89.1 °F 91.0 °F 64.9 °F 45% 29.89 in 10.0 mi SSW 11.5 mph - N/A   Clear
12:53 PM 93.0 °F 94.6 °F 64.0 °F 38% 29.88 in 10.0 mi SW 9.2 mph - N/A   Clear
1:53 PM 95.0 °F 96.0 °F 63.0 °F 34% 29.87 in 10.0 mi South 9.2 mph - N/A   Clear
2:53 PM 97.0 °F 96.9 °F 60.1 °F 29% 29.87 in 10.0 mi SSW 10.4 mph - N/A   Clear
3:53 PM 96.1 °F 96.4 °F 61.0 °F 31% 29.86 in 10.0 mi SW 11.5 mph - N/A   Clear
4:53 PM 98.1 °F 97.2 °F 57.9 °F 26% 29.85 in 10.0 mi SW 12.7 mph - N/A   Clear
5:53 PM 98.1 °F 98.6 °F 61.0 °F 29% 29.85 in 10.0 mi SSW 11.5 mph 48.3 mph N/A   Clear
6:53 PM 96.1 °F 96.9 °F 62.1 °F 32% 29.85 in 10.0 mi South 6.9 mph - N/A   Clear
7:53 PM 91.9 °F 94.1 °F 64.9 °F 41% 29.84 in 10.0 mi SSE 9.2 mph - N/A   Clear
8:53 PM 86.0 °F 88.2 °F 66.0 °F 51% 29.87 in 10.0 mi SSE 6.9 mph - N/A   Clear
9:53 PM 84.0 °F 86.3 °F 66.0 °F 55% 29.88 in 10.0 mi SSE 11.5 mph - N/A   Clear
10:53 PM 82.9 °F 85.0 °F 66.0 °F 56% 29.88 in 10.0 mi South 13.8 mph - N/A   Clear
11:53 PM 82.0 °F 83.8 °F 64.9 °F 56% 29.87 in 10.0 mi South 12.7 mph - N/A   Clear